Location: Nickerson Gardens
(33.9320°N, 118.2484°W)
Time: 14:50:57
(UTC+00:00)

STARS - Visible Passes

Search period start: 20 April 2021 00:00
Search period end: 30 April 2021 00:00
Orbit: 624 x 639 km, 98.2° (Epoch: 19 April)

Date Brightness Start Highest point End Pass type
(mag) Time Alt. Az. Time Alt. Az. Time Alt. Az.
20 Apr ? 06:04:11 10° N 06:04:36 12° N 06:04:36 12° N visible
21 Apr ? 06:25:28 10° NNW 06:25:43 11° NNW 06:25:43 11° NNW visible
22 Apr ? 05:09:21 10° NNE 05:09:25 10° NNE 05:09:25 10° NNE visible
23 Apr ? 05:29:57 10° NNE 05:30:32 14° NNE 05:30:32 14° NNE visible
24 Apr ? 05:50:47 10° N 05:51:39 16° N 05:51:39 16° N visible
25 Apr ? 06:11:52 10° N 06:12:45 15° NNW 06:12:45 15° NNW visible
26 Apr ? 04:56:25 10° NE 04:56:27 10° NE 04:56:27 10° NE visible
26 Apr ? 06:33:17 10° NNW 06:33:52 12° NNW 06:33:52 12° NNW visible
27 Apr ? 05:16:49 10° NNE 05:17:33 15° NNE 05:17:33 15° NNE visible
28 Apr ? 05:37:29 10° N 05:38:39 18° N 05:38:39 18° N visible
29 Apr ? 05:58:24 10° N 05:59:46 19° N 05:59:46 19° N visible
